Bardai Zougra Airport

Jump to: basic info | weather | comments

Related pages: nearby airports | nearby navaids | notams | map

Basic information (top)

Codes: FTTZ
Location: lon 21.450001, lat 17.049999, elev 3,524 ft / 1,074 m msl
Status: small_airport

Weather (top)

Current conditions for Faya Largeau Airport 242nm (448km) SSE (rec'd 2014/08/22 12:00Z):

FTTY 221200Z 32006KT 1500 HZ 39/16 Q////

Airport forecast for Kufra Airport 383nm (710km) ENE (rec'd 2014/07/29 12:00Z):

TAF HLKF 291100Z 2912/3012 36010KT CAVOK 
      BECMG 2918/2920 06012KT 
      BECMG 3008/3010 12010KT

Latest comments (top)

No comments yet for Bardai Zougra Airport

More... (top)

See also NOTAMs and nearby airports and navaids, or visit the Bardai Zougra Airport page at the main OurAirports website..